This is the latest recevied weather packets stored in our database for station/object W9KHP-1. If no packets are shown the sender has not sent any weather packets the latest 10 day(s).
| Time | Temp. | Humidity | Pressure | Rain* | Wind** | Luminosity | Snow |
|---|---|---|---|---|---|---|---|
| 1777984146 | 16.11° C | 78% | 1011.1 hPa | 0 mm | - | 56 W/m² | - |
| 1777983844 | 16.11° C | 78% | 1011 hPa | 0 mm | - | 55 W/m² | - |
| 1777983541 | 16.11° C | 79% | 1011.2 hPa | 0 mm | - | 52 W/m² | - |
| 1777983238 | 16.11° C | 80% | 1011 hPa | 0 mm | - | 49 W/m² | - |
| 1777982933 | 16.11° C | 80% | 1011.1 hPa | 0 mm | - | 41 W/m² | - |
| 1777982630 | 16.11° C | 80% | 1010.9 hPa | 0 mm | - | 35 W/m² | - |
| 1777982329 | 16.11° C | 80% | 1011 hPa | 0 mm | - | 31 W/m² | - |
| 1777982026 | 15.56° C | 80% | 1011.1 hPa | 0 mm | - | 28 W/m² | - |
| 1777981724 | 16.11° C | 82% | 1011 hPa | 0 mm | - | 21 W/m² | - |
| 1777981420 | 16.11° C | 80% | 1011.1 hPa | 0 mm | - | 20 W/m² | - |
| 1777981116 | 16.11° C | 81% | 1010.7 hPa | 0 mm | - | 18 W/m² | - |
| 1777980813 | 16.11° C | 79% | 1010.8 hPa | 0 mm | - | 16 W/m² | - |
| 1777980509 | 16.11° C | 79% | 1011 hPa | 0 mm | - | 13 W/m² | - |
| 1777980207 | 16.67° C | 76% | 1010.7 hPa | 0 mm | - | 10 W/m² | - |
| 1777979902 | 16.11° C | 77% | 1011 hPa | 0 mm | - | 8 W/m² | - |
| 1777979598 | 16.11° C | 77% | 1010.5 hPa | 0 mm | - | 5 W/m² | - |
| 1777979294 | 16.11° C | 78% | 1010.8 hPa | 0 mm | - | 3 W/m² | - |
| 1777978992 | 16.67° C | 78% | 1010.9 hPa | 0 mm | - | 1 W/m² | - |
| 1777978688 | 16.67° C | 75% | 1011 hPa | 0 mm | - | 1 W/m² | - |
| 1777978384 | 16.67° C | 75% | 1011 hPa | 0 mm | - | 0 W/m² | - |
| 1777978080 | 16.67° C | 75% | 1011 hPa | 0 mm | - | 0 W/m² | - |
| 1777977778 | 16.67° C | 74% | 1010.7 hPa | 0 mm | - | 0 W/m² | - |
| 1777977474 | 16.67° C | 75% | 1010.8 hPa | 0 mm | - | 0 W/m² | - |
| 1777977172 | 16.67° C | 75% | 1010.6 hPa | 0 mm | - | 0 W/m² | - |
| 1777976869 | 16.67° C | 76% | 1010.3 hPa | 0 mm | - | 0 W/m² | - |
* Rain latest hour (hover to see other rain measurements)
** Current wind speed in m/s (hover to see current wind gust speed)